This demonstration page uses our WeatherBlox Daily Observations layout. Learn more.

Left ArrowRight Arrow

Hourly Observations for May 7, 2022

Temp ( °F °C ) Dew Point ( °F °C ) Humidity (%) Winds ( mph kmh ) Pressure ( in mb ) Visibility ( mi km ) Precip ( " mm )
12:56 am 00:56 Clear 55 12.6 50 10 84 84 Calm 29.91 1013 10 16 0.00 0.00
1:56 am 01:56 Clear 53 11.7 49 9.4 86 86 Calm 29.92 1013 10 16 0.00 0.00
2:56 am 02:56 Clear 52 11.2 48 8.8 85 85 Calm 29.91 1013 10 16 0.00 0.00
3:56 am 03:56 Clear 52 11.1 46 8 81 81 Calm 29.92 1013 10 16 0.00 0.00
4:56 am 04:56 Clear 52 11.2 47 8.1 81 81 Calm 29.92 1013 10 16 0.00 0.00
5:56 am 05:56 Clear 52 11.2 46 7.9 80 80 Calm 29.93 1014 10 16 0.00 0.00
6:56 am 06:56 Sunny 52 11.1 47 8.1 82 82 VRB 7 11 29.93 1014 10 16 0.00 0.00
7:56 am 07:56 Mostly Cloudy 55 12.9 46 7.6 70 70 SSE 10 17 29.95 1014 10 16 0.00 0.00
8:56 am 08:56 Mostly Sunny 59 14.8 44 6.9 59 59 SE 20 31 29.95 1014 10 16 0.00 0.00
9:56 am 09:56 Mostly Sunny 62 16.6 45 7.2 54 54 SE 16 26 29.94 1014 10 16 0.00 0.00
10:56 am 10:56 Mostly Sunny 65 18.1 45 7.2 49 49 SE 16 26 29.92 1013 10 16 0.00 0.00
11:56 am 11:56 Sunny 67 19.4 46 7.5 46 46 SE 14 22 29.90 1012 10 16 0.00 0.00
12:56 pm 12:56 Sunny 69 20.7 46 8 44 44 SSE 14 22 29.86 1011 10 16 0.00 0.00
1:56 pm 13:56 Sunny 72 22.1 46 7.9 40 40 SSE 21 33 29.83 1010 10 16 0.00 0.00
2:56 pm 14:56 Partly Cloudy 73 22.9 46 7.8 38 38 SE 18 30 29.80 1009 7 11 0.00 0.00
3:56 pm 15:56 Mostly Sunny 75 24 46 8 36 36 SE 20 31 29.76 1008 9 14 0.00 0.00
4:56 pm 16:56 Partly Cloudy 75 23.8 46 7.8 36 36 SE 23 37 29.74 1007 9 14 0.00 0.00
5:56 pm 17:56 Sunny 74 23.5 46 7.6 36 36 SE 21 33 29.71 1006 9 14 0.00 0.00
6:56 pm 18:56 Sunny 73 22.5 46 7.5 38 38 SE 22 35 29.68 1005 8 13 0.00 0.00
7:56 pm 19:56 Sunny 69 20.7 46 7.7 43 43 SE 18 30 29.68 1005 10 16 0.00 0.00
8:56 pm 20:56 Clear 67 19.5 45 7.2 45 45 SE 18 30 29.65 1004 10 16 0.00 0.00
9:56 pm 21:56 Mostly Cloudy 65 18.3 45 7.4 49 49 SE 18 30 29.66 1005 10 16 0.00 0.00
10:56 pm 22:56 Mostly Cloudy 64 17.8 46 7.8 52 52 SE 17 28 29.66 1004 10 16 0.00 0.00
11:56 pm 23:56 Mostly Cloudy 64 17.7 46 7.7 52 52 SE 18 30 29.65 1004 10 16 0.00 0.00

Powered by AerisWeather